TimeEST,TemperatureF,Dew PointF,Humidity,Sea Level PressureIn,VisibilityMPH,Wind Direction,Wind SpeedMPH,Gust SpeedMPH,PrecipitationIn,Events,Conditions,WindDirDegrees,DateUTC
12:15 AM,26.6,24.8,93,30.44,10.0,Calm,Calm,-,N/A,,Scattered Clouds,0,2013-01-27 05:15:00
12:35 AM,24.8,23.0,93,30.44,10.0,ESE,3.5,-,N/A,,Scattered Clouds,120,2013-01-27 05:35:00
12:55 AM,24.8,24.8,100,30.45,7.0,Calm,Calm,-,N/A,,Overcast,0,2013-01-27 05:55:00
1:15 AM,26.6,26.6,100,30.45,10.0,Calm,Calm,-,N/A,,Overcast,0,2013-01-27 06:15:00
1:35 AM,26.6,26.6,100,30.45,10.0,Calm,Calm,-,N/A,,Mostly Cloudy,0,2013-01-27 06:35:00
1:55 AM,24.8,24.8,100,30.47,7.0,Calm,Calm,-,N/A,,Scattered Clouds,0,2013-01-27 06:55:00
2:15 AM,23.0,23.0,100,30.47,7.0,Calm,Calm,-,N/A,,Mostly Cloudy,0,2013-01-27 07:15:00
2:35 AM,23.0,23.0,100,30.47,7.0,Calm,Calm,-,N/A,,Scattered Clouds,0,2013-01-27 07:35:00
2:55 AM,23.0,23.0,100,30.49,7.0,Calm,Calm,-,N/A,,Mostly Cloudy,0,2013-01-27 07:55:00
3:15 AM,23.0,23.0,100,30.49,7.0,Calm,Calm,-,N/A,,Overcast,0,2013-01-27 08:15:00
3:35 AM,24.8,24.8,100,30.49,7.0,Calm,Calm,-,N/A,,Overcast,0,2013-01-27 08:35:00
3:55 AM,23.0,23.0,100,30.47,7.0,Calm,Calm,-,N/A,,Mostly Cloudy,0,2013-01-27 08:55:00
4:15 AM,23.0,23.0,100,30.48,7.0,Calm,Calm,-,N/A,,Scattered Clouds,0,2013-01-27 09:15:00
4:35 AM,23.0,23.0,100,30.47,7.0,Calm,Calm,-,N/A,,Clear,0,2013-01-27 09:35:00
4:55 AM,23.0,23.0,100,30.47,7.0,Calm,Calm,-,N/A,,Scattered Clouds,0,2013-01-27 09:55:00
5:15 AM,23.0,23.0,100,30.48,7.0,Calm,Calm,-,N/A,,Mostly Cloudy,0,2013-01-27 10:15:00
5:35 AM,23.0,23.0,100,30.49,7.0,Calm,Calm,-,N/A,,Mostly Cloudy,0,2013-01-27 10:35:00
5:55 AM,23.0,23.0,100,30.50,10.0,Calm,Calm,-,N/A,,Mostly Cloudy,0,2013-01-27 10:55:00
6:15 AM,23.0,23.0,100,30.51,10.0,Calm,Calm,-,N/A,,Overcast,0,2013-01-27 11:15:00
6:35 AM,26.6,23.0,86,30.52,10.0,Calm,Calm,-,N/A,,Overcast,0,2013-01-27 11:35:00
6:55 AM,26.6,24.8,93,30.53,10.0,Calm,Calm,-,N/A,,Overcast,0,2013-01-27 11:55:00
7:15 AM,26.6,23.0,86,30.54,10.0,North,3.5,-,N/A,,Overcast,10,2013-01-27 12:15:00
7:35 AM,28.4,23.0,80,30.54,10.0,North,3.5,-,N/A,,Overcast,360,2013-01-27 12:35:00
7:55 AM,28.4,23.0,80,30.55,10.0,Calm,Calm,-,N/A,,Mostly Cloudy,0,2013-01-27 12:55:00
8:15 AM,28.4,23.0,80,30.56,10.0,Calm,Calm,-,N/A,,Mostly Cloudy,0,2013-01-27 13:15:00
8:35 AM,28.4,26.6,93,30.57,10.0,Calm,Calm,-,N/A,,Overcast,0,2013-01-27 13:35:00
8:55 AM,28.4,26.6,93,30.58,10.0,Calm,Calm,-,N/A,,Overcast,0,2013-01-27 13:55:00
9:15 AM,30.2,23.0,75,30.59,10.0,Calm,Calm,-,N/A,,Overcast,0,2013-01-27 14:15:00
9:35 AM,30.2,23.0,75,30.59,10.0,Calm,Calm,-,N/A,,Overcast,0,2013-01-27 14:35:00
9:55 AM,32.0,21.2,64,30.60,10.0,Calm,Calm,-,N/A,,Overcast,0,2013-01-27 14:55:00
10:15 AM,32.0,21.2,64,30.60,10.0,Calm,Calm,-,N/A,,Overcast,0,2013-01-27 15:15:00
10:35 AM,32.0,21.2,64,30.60,10.0,NE,3.5,-,N/A,,Overcast,50,2013-01-27 15:35:00
10:55 AM,32.0,21.2,64,30.61,10.0,Calm,Calm,-,N/A,,Overcast,0,2013-01-27 15:55:00
11:15 AM,32.0,21.2,64,30.60,10.0,Calm,Calm,-,N/A,,Overcast,0,2013-01-27 16:15:00
11:35 AM,32.0,21.2,64,30.59,10.0,Calm,Calm,-,N/A,,Overcast,0,2013-01-27 16:35:00
11:55 AM,33.8,23.0,65,30.59,10.0,WSW,3.5,-,N/A,,Overcast,240,2013-01-27 16:55:00
12:15 PM,33.8,23.0,65,30.58,10.0,Calm,Calm,-,N/A,,Mostly Cloudy,0,2013-01-27 17:15:00
12:35 PM,35.6,23.0,60,30.56,10.0,South,6.9,-,N/A,,Clear,190,2013-01-27 17:35:00
12:55 PM,35.6,23.0,60,30.55,10.0,SSW,8.1,-,N/A,,Clear,210,2013-01-27 17:55:00
1:15 PM,37.4,23.0,56,30.53,10.0,SSW,9.2,-,N/A,,Clear,210,2013-01-27 18:15:00
1:35 PM,37.4,23.0,56,30.53,10.0,SSW,5.8,-,N/A,,Clear,210,2013-01-27 18:35:00
1:55 PM,37.4,23.0,56,30.52,10.0,SW,4.6,-,N/A,,Clear,230,2013-01-27 18:55:00
2:15 PM,37.4,23.0,56,30.51,10.0,SSW,4.6,-,N/A,,Clear,210,2013-01-27 19:15:00
2:35 PM,37.4,23.0,56,30.51,10.0,SSE,4.6,-,N/A,,Clear,150,2013-01-27 19:35:00
2:55 PM,37.4,23.0,56,30.50,10.0,South,5.8,-,N/A,,Clear,180,2013-01-27 19:55:00
3:15 PM,37.4,23.0,56,30.50,10.0,SE,5.8,-,N/A,,Clear,130,2013-01-27 20:15:00
3:35 PM,37.4,23.0,56,30.50,10.0,South,3.5,-,N/A,,Clear,180,2013-01-27 20:35:00
3:55 PM,37.4,23.0,56,30.50,10.0,South,4.6,-,N/A,,Clear,190,2013-01-27 20:55:00
4:15 PM,37.4,23.0,56,30.50,10.0,SSW,6.9,-,N/A,,Clear,200,2013-01-27 21:15:00
4:35 PM,37.4,24.8,60,30.51,10.0,South,6.9,-,N/A,,Clear,180,2013-01-27 21:35:00
4:55 PM,35.6,24.8,65,30.51,10.0,South,8.1,-,N/A,,Clear,190,2013-01-27 21:55:00
5:15 PM,35.6,23.0,60,30.51,10.0,South,4.6,-,N/A,,Clear,180,2013-01-27 22:15:00
5:35 PM,33.8,24.8,70,30.51,10.0,SSE,5.8,-,N/A,,Clear,160,2013-01-27 22:35:00
5:55 PM,33.8,24.8,70,30.52,10.0,South,5.8,-,N/A,,Clear,180,2013-01-27 22:55:00
6:15 PM,32.0,24.8,75,30.52,10.0,South,4.6,-,N/A,,Clear,180,2013-01-27 23:15:00
6:35 PM,32.0,24.8,75,30.52,10.0,SSE,4.6,-,N/A,,Clear,160,2013-01-27 23:35:00
6:55 PM,32.0,24.8,75,30.52,10.0,South,3.5,-,N/A,,Clear,180,2013-01-27 23:55:00
7:15 PM,32.0,24.8,75,30.51,10.0,SSE,3.5,-,N/A,,Clear,160,2013-01-28 00:15:00
7:35 PM,30.2,24.8,80,30.51,10.0,South,3.5,-,N/A,,Clear,190,2013-01-28 00:35:00
7:55 PM,28.4,23.0,80,30.52,10.0,Calm,Calm,-,N/A,,Clear,0,2013-01-28 00:55:00
8:15 PM,28.4,23.0,80,30.49,10.0,Calm,Calm,-,N/A,,Clear,0,2013-01-28 01:15:00
8:35 PM,28.4,23.0,80,30.49,10.0,SSW,3.5,-,N/A,,Clear,200,2013-01-28 01:35:00
8:55 PM,28.4,24.8,86,30.50,10.0,Calm,Calm,-,N/A,,Clear,0,2013-01-28 01:55:00
9:15 PM,26.6,23.0,86,30.50,10.0,Calm,Calm,-,N/A,,Clear,0,2013-01-28 02:15:00
9:35 PM,26.6,24.8,93,30.50,10.0,Calm,Calm,-,N/A,,Clear,0,2013-01-28 02:35:00
9:55 PM,28.4,26.6,93,30.49,10.0,Calm,Calm,-,N/A,,Clear,0,2013-01-28 02:55:00
10:15 PM,28.4,26.6,93,30.49,10.0,Calm,Calm,-,N/A,,Clear,0,2013-01-28 03:15:00
10:35 PM,32.0,26.6,80,30.49,10.0,SSE,3.5,-,N/A,,Scattered Clouds,160,2013-01-28 03:35:00
10:55 PM,32.0,26.6,80,30.47,10.0,SE,3.5,-,N/A,,Mostly Cloudy,140,2013-01-28 03:55:00
11:15 PM,32.0,26.6,80,30.49,10.0,Calm,Calm,-,N/A,,Overcast,0,2013-01-28 04:15:00
11:35 PM,32.0,26.6,80,30.48,10.0,Calm,Calm,-,N/A,,Overcast,0,2013-01-28 04:35:00
11:55 PM,32.0,26.6,80,30.49,10.0,Calm,Calm,-,N/A,,Overcast,0,2013-01-28 04:55:00